SES-15

Last updated on Sun Jun 21 2026 00:03:07 GMT+0000 (Coordinated Universal Time)

1 42709U 17026A 26171.39489199 .00000056 00000+0 00000+0 0 9996 2 42709 0.0195 339.4234 0000441 78.9236 223.2436 1.00268923 7461
UTC large
Height (km)
Speed (km/s)
/
Latitude / Longitude
Inclination (degrees)
Orbital Period (minutes)
Azimuth
Elevation
Range (km)
Doppler Factor

Next 0 passes for location: London (51.5072 / 0.1276)

No passes found over London.
SES-15